GW1401 Weather Reports


Display with metric or nautical units.
time (UTC)temp
F
wind
direction
speed
MPH
gust
MPH
rain 1hr
in
rain 24hr
in
rain mn
in
humidity
%
barometer
mb
20260509072443 58 131 0.0 2.0 0.00 0.00 0.00 88 1012.4
20260509071940 58 95 0.0 1.0 0.00 0.00 0.00 87 1012.4
20260509071436 58 186 0.0 3.0 0.00 0.00 0.00 87 1012.5
20260509070934 58 79 0.0 2.0 0.00 0.00 0.00 86 1012.5
20260509070431 58 346 1.0 2.0 0.00 0.00 0.00 86 1012.8
20260509065926 58 102 0.0 3.0 0.00 0.00 0.00 85 1012.8
20260509065423 58 141 0.0 5.0 0.00 0.00 0.00 84 1012.8
20260509064919 58 132 0.0 1.0 0.00 0.00 0.00 84 1012.8
20260509064417 58 94 0.0 0.0 0.00 0.00 0.00 84 1012.8
20260509063914 58 154 0.0 0.0 0.00 0.00 0.00 84 1012.7
20260509063410 58 117 0.0 0.0 0.00 0.00 0.00 83 1012.8
20260509062907 58 116 0.0 0.0 0.00 0.00 0.00 83 1012.8
20260509062404 57 111 0.0 0.0 0.00 0.00 0.00 83 1012.6
20260509061902 57 118 0.0 0.0 0.00 0.00 0.00 83 1012.9
20260509061400 58 117 0.0 0.0 0.00 0.00 0.00 82 1012.8
20260509060856 58 114 0.0 0.0 0.00 0.00 0.00 81 1012.7
20260509060353 58 116 0.0 0.0 0.00 0.00 0.00 80 1012.9
20260509055848 59 115 0.0 0.0 0.00 0.00 0.00 79 1012.8
20260509055344 59 119 0.0 0.0 0.00 0.00 0.00 78 1012.9
20260509054841 59 152 0.0 0.0 0.00 0.00 0.00 77 1013.0
20260509054338 59 117 0.0 0.0 0.00 0.00 0.00 77 1013.2
20260509053836 58 125 0.0 0.0 0.00 0.00 0.00 76 1013.1
20260509053333 58 128 0.0 0.0 0.00 0.00 0.00 78 1013.2
20260509052831 57 126 0.0 0.0 0.00 0.00 0.00 80 1013.0
20260509052329 57 124 0.0 0.0 0.00 0.00 0.00 81 1013.1
20260509051826 57 119 0.0 0.0 0.00 0.00 0.00 83 1012.9
20260509051324 57 119 0.0 0.0 0.00 0.00 0.00 82 1012.9
20260509050820 57 119 0.0 0.0 0.00 0.00 0.00 83 1012.9
20260509050317 57 119 0.0 0.0 0.00 0.00 0.00 83 1012.7
20260509045814 57 119 0.0 0.0 0.00 0.00 0.00 84 1012.8
20260509045311 57 119 0.0 0.0 0.00 0.00 0.00 83 1012.8
20260509044808 57 119 0.0 0.0 0.00 0.00 0.00 81 1012.7
20260509044306 57 119 0.0 0.0 0.00 0.00 0.00 79 1012.7
20260509043802 57 116 0.0 0.0 0.00 0.00 0.00 78 1012.7
20260509043258 58 120 0.0 0.0 0.00 0.00 0.00 80 1012.8
20260509042754 58 120 0.0 0.0 0.00 0.00 0.00 79 1012.8
20260509042251 58 120 0.0 0.0 0.00 0.00 0.00 77 1012.8
20260509041747 58 120 0.0 0.0 0.00 0.00 0.00 76 1012.9
20260509041245 58 121 0.0 0.0 0.00 0.00 0.00 78 1012.7
20260509040743 58 120 0.0 0.0 0.00 0.00 0.00 76 1012.9
20260509040240 58 120 0.0 0.0 0.00 0.00 0.00 76 1012.8
20260509035736 58 123 0.0 0.0 0.00 0.00 0.00 76 1012.7
20260509035233 59 120 0.0 0.0 0.00 0.00 0.00 75 1012.9
20260509034730 59 121 0.0 0.0 0.00 0.00 0.00 73 1012.8
20260509034228 59 121 0.0 0.0 0.00 0.00 0.00 74 1012.7
20260509033725 59 121 0.0 0.0 0.00 0.00 0.00 72 1013.0
20260509033222 60 123 0.0 0.0 0.00 0.00 0.00 74 1012.9
20260509032719 60 119 0.0 0.0 0.00 0.00 0.00 70 1013.1
20260509032216 60 119 0.0 0.0 0.00 0.00 0.00 70 1012.8
20260509031713 61 127 0.0 0.0 0.00 0.00 0.00 69 1012.9
20260509031211 61 121 0.0 0.0 0.00 0.00 0.00 69 1013.0
20260509030709 60 123 0.0 0.0 0.00 0.00 0.00 71 1013.1
20260509030206 60 119 0.0 0.0 0.00 0.00 0.00 71 1013.3
20260509025702 61 119 0.0 0.0 0.00 0.00 0.00 70 1013.3
20260509025158 62 191 0.0 0.0 0.00 0.00 0.00 69 1013.4
20260509024653 61 117 0.0 0.0 0.00 0.00 0.00 65 1013.3
20260509024149 61 116 0.0 0.0 0.00 0.00 0.00 67 1013.3
20260509023647 61 127 0.0 0.0 0.00 0.00 0.00 68 1013.4
20260509023144 61 122 0.0 0.0 0.00 0.00 0.00 66 1013.5
20260509022640 61 122 0.0 0.0 0.00 0.00 0.00 67 1013.5
20260509022138 62 122 0.0 0.0 0.00 0.00 0.00 66 1013.5
20260509021635 62 122 0.0 0.0 0.00 0.00 0.00 65 1013.4
20260509021132 62 114 0.0 0.0 0.00 0.00 0.00 65 1013.5
20260509020630 63 119 0.0 0.0 0.00 0.00 0.00 62 1013.5
20260509020127 63 114 0.0 0.0 0.00 0.00 0.00 59 1013.3
20260509015626 64 136 0.0 0.0 0.00 0.00 0.00 57 1013.3
20260509015123 63 135 0.0 0.0 0.00 0.00 0.00 58 1013.3
20260509014619 63 131 0.0 0.0 0.00 0.00 0.00 59 1013.4
20260509014116 63 131 0.0 0.0 0.00 0.00 0.00 56 1013.3
20260509013613 64 125 0.0 0.0 0.00 0.00 0.00 56 1013.2
20260509013108 65 124 0.0 0.0 0.00 0.00 0.00 54 1013.3
20260509012606 65 135 0.0 0.0 0.00 0.00 0.00 54 1013.4
20260509012102 66 134 0.0 0.0 0.00 0.00 0.00 53 1013.1
20260509011600 66 136 0.0 0.0 0.00 0.00 0.00 52 1013.3
20260509011057 66 128 0.0 0.0 0.00 0.00 0.00 51 1013.1
20260509010555 66 131 0.0 1.0 0.00 0.00 0.00 50 1013.2
20260509010051 66 137 0.0 0.0 0.00 0.00 0.00 50 1013.2
20260509005549 67 132 0.0 2.0 0.00 0.00 0.00 49 1013.2
20260509005044 67 135 0.0 0.0 0.00 0.00 0.00 49 1013.2
20260509004541 67 117 0.0 0.0 0.00 0.00 0.00 48 1013.3
20260509004038 67 135 0.0 1.0 0.00 0.00 0.00 48 1013.3
20260509003536 68 114 0.0 0.0 0.00 0.00 0.00 48 1013.3
20260509003033 68 130 0.0 2.0 0.00 0.00 0.00 47 1013.4
20260509002531 68 146 0.0 1.0 0.00 0.00 0.00 46 1013.4
20260509002028 68 133 0.0 0.0 0.00 0.00 0.00 45 1013.4
20260509001525 68 147 1.0 2.0 0.00 0.00 0.00 45 1013.5
20260509001021 69 160 1.0 2.0 0.00 0.00 0.00 45 1013.3
20260509000520 69 173 3.0 6.0 0.00 0.00 0.00 44 1013.3
20260509000015 70 161 1.0 3.0 0.00 0.00 0.00 44 1013.4
20260508235513 70 125 0.0 5.0 0.00 0.00 0.00 44 1013.4
20260508235009 70 126 1.0 8.0 0.00 0.00 0.00 43 1013.5
20260508234507 70 162 2.0 7.0 0.00 0.00 0.00 43 1013.6
20260508234004 71 141 2.0 11.0 0.00 0.00 0.00 42 1013.4
20260508233503 71 141 3.0 5.0 0.00 0.00 0.00 42 1013.3
20260508233000 71 165 3.0 7.0 0.00 0.00 0.00 43 1013.3
20260508232457 71 150 3.0 5.0 0.00 0.00 0.00 44 1013.3
20260508231954 72 144 3.0 9.0 0.00 0.00 0.00 42 1013.4
20260508231451 72 177 4.0 11.0 0.00 0.00 0.00 42 1013.3
20260508230948 72 232 4.0 8.0 0.00 0.00 0.00 42 1013.4
20260508230444 72 157 0.0 3.0 0.00 0.00 0.00 45 1013.4
20260508225941 72 150 0.0 1.0 0.00 0.00 0.00 43 1013.3
20260508225439 72 210 4.0 13.0 0.00 0.00 0.00 43 1013.4
20260508224936 71 124 1.0 7.0 0.00 0.00 0.00 43 1013.5
20260508224433 71 180 3.0 9.0 0.00 0.00 0.00 42 1013.6
20260508223930 72 15 2.0 3.0 0.00 0.00 0.00 41 1013.5
20260508223429 72 238 2.0 6.0 0.00 0.00 0.00 41 1013.7
20260508222925 72 230 1.0 5.0 0.00 0.00 0.00 42 1013.5
20260508222423 72 119 3.0 6.0 0.00 0.00 0.00 41 1013.7
20260508221919 73 141 1.0 5.0 0.00 0.00 0.00 42 1013.4
20260508221414 73 126 2.0 6.0 0.00 0.00 0.00 42 1013.4
20260508220911 73 207 2.0 10.0 0.00 0.00 0.00 43 1013.3
20260508220408 74 136 0.0 5.0 0.00 0.00 0.00 42 1013.2
20260508215904 75 209 2.0 6.0 0.00 0.00 0.00 40 1013.4
20260508215401 74 189 3.0 7.0 0.00 0.00 0.00 39 1013.1
20260508214858 74 314 5.0 9.0 0.00 0.00 0.00 38 1013.4
20260508214355 75 141 6.0 10.0 0.00 0.00 0.00 39 1013.4
20260508213851 74 132 5.0 8.0 0.00 0.00 0.00 40 1013.1
20260508213348 75 119 1.0 7.0 0.00 0.00 0.00 39 1013.2
20260508212844 75 310 3.0 7.0 0.00 0.00 0.00 38 1013.3
20260508212341 75 275 2.0 9.0 0.00 0.00 0.00 38 1013.4
20260508211837 74 125 2.0 6.0 0.00 0.00 0.00 39 1013.6
20260508211333 74 202 3.0 7.0 0.00 0.00 0.00 39 1013.8
20260508210831 75 120 1.0 13.0 0.00 0.00 0.00 40 1013.6
20260508210327 75 233 2.0 7.0 0.00 0.00 0.00 40 1013.6
20260508205824 75 200 4.0 6.0 0.00 0.00 0.00 38 1013.9
20260508205320 75 162 3.0 7.0 0.00 0.00 0.00 39 1014.0
20260508204816 74 177 3.0 7.0 0.00 0.00 0.00 38 1013.9
20260508204313 75 122 2.0 9.0 0.00 0.00 0.00 38 1014.0
20260508203810 75 152 3.0 8.0 0.00 0.00 0.00 41 1014.0
20260508203306 74 168 3.0 5.0 0.00 0.00 0.00 40 1014.1
20260508202801 75 104 4.0 10.0 0.00 0.00 0.00 39 1014.3
20260508202259 75 125 1.0 6.0 0.00 0.00 0.00 39 1014.2
20260508201756 74 193 2.0 8.0 0.00 0.00 0.00 38 1014.2
20260508201253 74 167 5.0 10.0 0.00 0.00 0.00 38 1014.4
20260508200749 75 185 3.0 7.0 0.00 0.00 0.00 37 1014.6
20260508200246 75 171 3.0 9.0 0.00 0.00 0.00 40 1014.7
20260508195742 75 140 2.0 9.0 0.00 0.00 0.00 38 1014.9
20260508195239 74 286 2.0 8.0 0.00 0.00 0.00 42 1014.8
20260508194735 74 166 3.0 7.0 0.00 0.00 0.00 42 1014.8
20260508194232 74 210 1.0 6.0 0.00 0.00 0.00 39 1015.0
20260508193729 74 244 5.0 10.0 0.00 0.00 0.00 39 1015.1
20260508193226 73 151 3.0 8.0 0.00 0.00 0.00 40 1015.2
20260508192722 74 129 2.0 9.0 0.00 0.00 0.00 38 1015.2
20260508192219 75 321 6.0 9.0 0.00 0.00 0.00 37 1015.2
20260508191717 74 260 4.0 7.0 0.00 0.00 0.00 39 1015.3
20260508191214 73 273 5.0 6.0 0.00 0.00 0.00 40 1015.6
20260508190711 73 217 4.0 11.0 0.00 0.00 0.00 41 1015.8
20260508190207 72 247 3.0 8.0 0.00 0.00 0.00 40 1015.8
20260508185704 73 168 5.0 8.0 0.00 0.00 0.00 37 1015.6
20260508185201 74 151 1.0 7.0 0.00 0.00 0.00 36 1015.9
20260508184658 74 188 2.0 8.0 0.00 0.00 0.00 41 1015.8
20260508184155 74 289 4.0 10.0 0.00 0.00 0.00 39 1015.8
20260508183652 74 156 2.0 8.0 0.00 0.00 0.00 40 1015.6
20260508183148 73 208 5.0 9.0 0.00 0.00 0.00 42 1015.6
20260508182644 73 131 3.0 10.0 0.00 0.00 0.00 39 1015.8
20260508182141 73 87 2.0 9.0 0.00 0.00 0.00 40 1015.5
20260508181636 72 139 6.0 10.0 0.00 0.00 0.00 40 1015.4
20260508181134 73 93 5.0 9.0 0.00 0.00 0.00 39 1015.6
20260508180631 73 189 3.0 5.0 0.00 0.00 0.00 42 1015.9
20260508180128 72 111 1.0 10.0 0.00 0.00 0.00 39 1016.1
20260508175624 72 175 3.0 8.0 0.00 0.00 0.00 38 1016.1
20260508175121 72 85 2.0 11.0 0.00 0.00 0.00 43 1016.1
20260508174618 73 195 5.0 9.0 0.00 0.00 0.00 39 1016.2
20260508174115 73 155 1.0 8.0 0.00 0.00 0.00 40 1016.5
20260508173612 72 0 3.0 7.0 0.00 0.00 0.00 37 1016.6
20260508173108 73 275 2.0 6.0 0.00 0.00 0.00 42 1016.5
20260508172606 72 167 3.0 15.0 0.00 0.00 0.00 40 1016.9
20260508172102 73 154 1.0 8.0 0.00 0.00 0.00 43 1017.0
20260508171559 73 164 1.0 7.0 0.00 0.00 0.00 41 1017.0
20260508171055 71 140 2.0 8.0 0.00 0.00 0.00 39 1017.0
20260508170553 73 358 3.0 7.0 0.00 0.00 0.00 39 1017.1
20260508170050 72 117 5.0 6.0 0.00 0.00 0.00 40 1017.3
20260508165547 72 118 0.0 0.0 0.00 0.00 0.00 40 1017.6
20260508165044 71 173 5.0 9.0 0.00 0.00 0.00 40 1017.7
20260508164540 71 267 3.0 9.0 0.00 0.00 0.00 38 1017.7
20260508164037 71 220 3.0 6.0 0.00 0.00 0.00 43 1017.7
20260508163534 71 130 3.0 9.0 0.00 0.00 0.00 40 1017.9
20260508163031 71 99 1.0 5.0 0.00 0.00 0.00 42 1018.0
20260508162528 71 310 3.0 5.0 0.00 0.00 0.00 42 1017.7
20260508162025 71 288 2.0 8.0 0.00 0.00 0.00 42 1018.2
20260508161522 70 120 1.0 2.0 0.00 0.00 0.00 48 1018.0
20260508161019 70 139 5.0 9.0 0.00 0.00 0.00 43 1017.9
20260508160518 71 214 3.0 6.0 0.00 0.00 0.00 43 1018.3
20260508160014 70 202 1.0 2.0 0.00 0.00 0.00 46 1018.3
20260508155511 71 244 3.0 5.0 0.00 0.00 0.00 43 1018.2
20260508155008 70 198 5.0 6.0 0.00 0.00 0.00 41 1018.3
20260508154506 70 276 3.0 5.0 0.00 0.00 0.00 45 1018.5
20260508154002 70 252 4.0 6.0 0.00 0.00 0.00 44 1018.7
20260508153459 68 209 5.0 9.0 0.00 0.00 0.00 44 1018.6
20260508152955 68 127 2.0 8.0 0.00 0.00 0.00 47 1019.0
20260508152452 68 276 1.0 8.0 0.00 0.00 0.00 46 1018.9
20260508151948 69 227 2.0 8.0 0.00 0.00 0.00 46 1019.2
20260508151445 69 142 1.0 3.0 0.00 0.00 0.00 47 1019.0
20260508150941 68 129 2.0 11.0 0.00 0.00 0.00 46 1019.0
20260508150438 68 262 1.0 6.0 0.00 0.00 0.00 46 1019.4
20260508145934 68 117 3.0 5.0 0.00 0.00 0.00 45 1019.4
20260508145431 68 160 1.0 5.0 0.00 0.00 0.00 44 1019.5
20260508144927 67 242 4.0 7.0 0.00 0.00 0.00 43 1019.6
20260508144425 67 253 4.0 7.0 0.00 0.00 0.00 45 1019.3
20260508143922 67 230 2.0 8.0 0.00 0.00 0.00 44 1019.5
20260508143420 67 147 3.0 5.0 0.00 0.00 0.00 45 1019.7
20260508142916 67 148 2.0 6.0 0.00 0.00 0.00 47 1019.5
20260508142413 67 251 3.0 5.0 0.00 0.00 0.00 48 1019.5
20260508141910 66 195 2.0 2.0 0.00 0.00 0.00 52 1019.6
20260508141406 65 321 4.0 6.0 0.00 0.00 0.00 51 1019.4
20260508140904 64 223 0.0 2.0 0.00 0.00 0.00 55 1019.5
20260508140401 64 156 1.0 5.0 0.00 0.00 0.00 55 1019.4
20260508135856 63 283 2.0 6.0 0.00 0.00 0.00 57 1019.4
20260508135353 62 142 3.0 5.0 0.00 0.00 0.00 56 1019.5
20260508134849 62 164 1.0 3.0 0.00 0.00 0.00 56 1019.7
20260508134346 62 326 1.0 3.0 0.00 0.00 0.00 57 1019.8
20260508133843 61 248 3.0 3.0 0.00 0.00 0.00 56 1019.6
20260508133341 60 130 0.0 2.0 0.00 0.00 0.00 60 1019.4
20260508132837 59 111 1.0 3.0 0.00 0.00 0.00 58 1019.5
20260508132335 58 122 0.0 2.0 0.00 0.00 0.00 63 1019.6
20260508131832 57 165 3.0 5.0 0.00 0.00 0.00 62 1019.7
20260508131327 57 126 0.0 2.0 0.00 0.00 0.00 63 1019.6
20260508130824 56 147 1.0 2.0 0.00 0.00 0.00 65 1019.4
20260508130321 56 133 2.0 3.0 0.00 0.00 0.00 65 1019.7
20260508125817 55 134 0.0 2.0 0.00 0.00 0.00 68 1019.6
20260508125314 54 126 0.0 1.0 0.00 0.00 0.00 68 1019.6
20260508124812 53 152 1.0 2.0 0.00 0.00 0.00 70 1019.7
20260508124308 52 155 0.0 2.0 0.00 0.00 0.00 76 1019.5
20260508123807 50 129 1.0 2.0 0.00 0.00 0.00 81 1019.4
20260508123305 47 115 1.0 1.0 0.00 0.00 0.00 96 1019.7
20260508122801 46 125 1.0 1.0 0.00 0.00 0.00 99 1019.5
20260508122258 45 133 0.0 1.0 0.00 0.00 0.00 99 1019.4
20260508121755 45 130 1.0 1.0 0.00 0.00 0.00 99 1019.5
20260508121254 44 117 0.0 0.0 0.00 0.00 0.00 99 1019.5
20260508120750 44 123 0.0 0.0 0.00 0.00 0.00 99 1019.5
20260508120249 43 119 0.0 0.0 0.00 0.00 0.00 99 1019.4
20260508115746 42 112 0.0 0.0 0.00 0.00 0.00 99 1019.7
20260508115243 41 123 0.0 1.0 0.00 0.00 0.00 99 1019.5
20260508114739 41 116 0.0 0.0 0.00 0.00 0.00 99 1019.5
20260508114236 40 114 0.0 0.0 0.00 0.00 0.00 99 1019.4
20260508113732 39 119 0.0 0.0 0.00 0.00 0.00 99 1019.3
20260508113231 39 120 0.0 0.0 0.00 0.00 0.00 99 1019.3
20260508112727 39 119 0.0 0.0 0.00 0.00 0.00 99 1019.3
20260508112224 39 117 0.0 0.0 0.00 0.00 0.00 99 1019.3
20260508111720 39 116 0.0 0.0 0.00 0.00 0.00 99 1019.1
20260508111219 39 119 0.0 0.0 0.00 0.00 0.00 99 1019.2
20260508110715 38 119 0.0 0.0 0.00 0.00 0.00 99 1019.1
20260508110212 38 119 0.0 0.0 0.00 0.00 0.00 99 1019.0
20260508105712 38 119 0.0 0.0 0.00 0.00 0.00 99 1019.0
20260508105209 38 119 0.0 0.0 0.00 0.00 0.00 99 1019.1
20260508104707 38 119 0.0 0.0 0.00 0.00 0.00 99 1019.0
20260508104203 38 119 0.0 0.0 0.00 0.00 0.00 99 1019.0
20260508103701 38 121 0.0 0.0 0.00 0.00 0.00 99 1019.0
20260508103158 38 121 0.0 0.0 0.00 0.00 0.00 99 1018.9
20260508102655 38 119 0.0 0.0 0.00 0.00 0.00 99 1019.0
20260508102153 38 119 0.0 0.0 0.00 0.00 0.00 99 1018.9
20260508101649 38 119 0.0 0.0 0.00 0.00 0.00 99 1019.1
20260508101147 38 119 0.0 0.0 0.00 0.00 0.00 99 1018.8
20260508100644 38 119 0.0 0.0 0.00 0.00 0.00 99 1019.0
20260508100143 38 119 0.0 0.0 0.00 0.00 0.00 99 1019.0
20260508095639 38 119 0.0 0.0 0.00 0.00 0.00 99 1018.7
20260508095136 38 119 0.0 0.0 0.00 0.00 0.00 99 1018.8
20260508094633 38 119 0.0 0.0 0.00 0.00 0.00 99 1018.9
20260508094129 38 120 0.0 0.0 0.00 0.00 0.00 99 1018.8
20260508093627 38 121 0.0 0.0 0.00 0.00 0.00 99 1019.0
20260508093124 38 117 0.0 0.0 0.00 0.00 0.00 99 1018.9
20260508092621 38 117 0.0 0.0 0.00 0.00 0.00 99 1018.8
20260508092120 38 117 0.0 0.0 0.00 0.00 0.00 99 1018.9
20260508091617 38 117 0.0 0.0 0.00 0.00 0.00 99 1019.1
20260508091114 39 117 0.0 0.0 0.00 0.00 0.00 99 1019.0
20260508090612 38 117 0.0 0.0 0.00 0.00 0.00 99 1019.0
20260508090109 38 117 0.0 0.0 0.00 0.00 0.00 99 1019.1
20260508085605 39 117 0.0 0.0 0.00 0.00 0.00 99 1018.8
20260508085102 38 117 0.0 0.0 0.00 0.00 0.00 99 1019.0
20260508084559 38 117 0.0 0.0 0.00 0.00 0.00 99 1019.0
20260508084056 39 117 0.0 0.0 0.00 0.00 0.00 99 1018.8
20260508083553 39 117 0.0 0.0 0.00 0.00 0.00 99 1019.1
20260508083050 39 117 0.0 0.0 0.00 0.00 0.00 99 1019.1
20260508082546 39 117 0.0 0.0 0.00 0.00 0.00 99 1019.2
20260508082043 39 117 0.0 0.0 0.00 0.00 0.00 99 1018.9
20260508081541 39 117 0.0 0.0 0.00 0.00 0.00 99 1019.1
20260508081036 39 117 0.0 0.0 0.00 0.00 0.00 99 1019.0
20260508080535 39 117 0.0 0.0 0.00 0.00 0.00 99 1018.9
20260508080032 39 117 0.0 0.0 0.00 0.00 0.00 99 1019.0
20260508075528 39 117 0.0 0.0 0.00 0.00 0.00 99 1019.0
20260508075026 39 117 0.0 0.0 0.00 0.00 0.00 99 1019.0
20260508074523 39 117 0.0 0.0 0.00 0.00 0.00 99 1019.0
20260508074020 39 117 0.0 0.0 0.00 0.00 0.00 99 1018.9
20260508073517 39 117 0.0 0.0 0.00 0.00 0.00 99 1019.0
20260508073015 39 117 0.0 0.0 0.00 0.00 0.00 99 1018.9